TimeMST,TemperatureF,Dew PointF,Humidity,Sea Level PressureIn,VisibilityMPH,Wind Direction,Wind SpeedMPH,Gust SpeedMPH,PrecipitationIn,Events,Conditions,WindDirDegrees,DateUTC
12:53 AM,32.0,24.1,73,30.38,10.0,WNW,10.4,-,N/A,,Clear,290,2013-01-17 07:53:00
1:53 AM,32.0,24.1,73,30.38,10.0,West,9.2,-,N/A,,Clear,280,2013-01-17 08:53:00
2:53 AM,30.0,23.0,75,30.40,10.0,North,5.8,20.7,N/A,,Clear,10,2013-01-17 09:53:00
4:53 AM,28.9,23.0,78,30.43,10.0,Calm,Calm,-,N/A,,Clear,0,2013-01-17 11:53:00
5:53 AM,28.9,23.0,78,30.46,10.0,NNW,6.9,-,N/A,,Clear,330,2013-01-17 12:53:00
6:53 AM,28.0,21.9,78,30.49,10.0,Calm,Calm,-,N/A,,Clear,0,2013-01-17 13:53:00
7:53 AM,28.0,23.0,81,30.52,10.0,Calm,Calm,-,N/A,,Clear,0,2013-01-17 14:53:00
8:53 AM,36.0,28.0,73,30.54,10.0,Calm,Calm,-,N/A,,Clear,0,2013-01-17 15:53:00
9:53 AM,41.0,28.0,60,30.55,10.0,Calm,Calm,-,N/A,,Clear,0,2013-01-17 16:53:00
10:53 AM,44.1,24.1,45,30.52,10.0,ESE,3.5,-,N/A,,Clear,120,2013-01-17 17:53:00
11:53 AM,46.9,23.0,39,30.47,10.0,ESE,3.5,-,N/A,,Clear,110,2013-01-17 18:53:00
12:53 PM,50.0,23.0,35,30.43,10.0,Calm,Calm,-,N/A,,Clear,0,2013-01-17 19:53:00
1:53 PM,52.0,24.1,34,30.40,10.0,Calm,Calm,-,N/A,,Clear,0,2013-01-17 20:53:00
2:53 PM,54.0,24.1,31,30.38,10.0,South,5.8,-,N/A,,Clear,180,2013-01-17 21:53:00
3:53 PM,55.0,24.1,30,30.38,10.0,ESE,5.8,-,N/A,,Clear,120,2013-01-17 22:53:00
4:53 PM,52.0,25.0,35,30.38,10.0,Calm,Calm,-,N/A,,Clear,0,2013-01-17 23:53:00
5:53 PM,44.1,24.1,45,30.41,10.0,South,6.9,-,N/A,,Clear,190,2013-01-18 00:53:00
6:53 PM,44.1,24.1,45,30.43,10.0,SW,4.6,-,N/A,,Clear,230,2013-01-18 01:53:00
7:53 PM,37.9,24.1,57,30.44,10.0,SSW,8.1,-,N/A,,Clear,210,2013-01-18 02:53:00
8:53 PM,37.0,23.0,57,30.42,10.0,SSW,10.4,-,N/A,,Clear,200,2013-01-18 03:53:00
9:53 PM,34.0,23.0,64,30.41,10.0,SW,8.1,-,N/A,,Clear,220,2013-01-18 04:53:00
10:53 PM,36.0,21.9,57,30.39,10.0,South,3.5,-,N/A,,Clear,190,2013-01-18 05:53:00
11:53 PM,36.0,21.9,57,30.36,10.0,SW,12.7,-,N/A,,Clear,230,2013-01-18 06:53:00